World > North America > United States > Pennsylvania

Hourly Bitumen, PA Regional Weather

Feedback E-mail the Weather

Quick WX

Bitumen, PA Weather Maps

°F °C°F °C
Bitumen Weather Map
UTC Time: 7/3/2022, 11:07
Your Time:

Bitumen, PA Regional Weather

Expires:202207031200;;605034
ASUS41 KCTP 031103
RWRCTP

REGIONAL WEATHER ROUNDUP
NATIONAL WEATHER SERVICE STATE COLLEGE PA
700 AM EDT SUN JUL 03 2022

Note: "fair" indicates few or no clouds below 12,000 feet with no 
significant weather and/or obstructions to visibility.

* = STATION THAT DOES NOT REPORT PRECIPITATION /E.G. RAIN...SNOW...ETC/
    THUNDER OR FOG.


PAZ004>006-010>012-017>019-024>028-033>037-041-042-045-046-049>053-031200-
CENTRAL PENNSYLVANIA
  
CITY           SKY/WX    TMP DP  RH WIND       PRES   REMARKS
BRADFORD       MOSUNNY   56  52  86 NW3       30.13R                  
ST MARYS       PTSUNNY   57  54  88 CALM      30.14                   
DUBOIS         CLOUDY    60  51  72 NW3       30.11R                  
CLEARFIELD     CLOUDY    59  57  93 S3        30.11R                  
JOHNSTOWN      CLOUDY    62  49  62 SW5       30.13R                  
SOMERSET       FAIR      59  54  82 S3        30.14R                  
ALTOONA        CLOUDY    64  58  80 S3        30.10R                  
STATE COLLEGE  SUNNY     66  54  63 CALM      30.09R                  
REEDSVILLE     FAIR      68  64  88 CALM      30.06                   
WELLSBORO      FAIR      59  54  82 CALM      30.10R                  
WILLIAMSPORT   PTSUNNY   65  59  81 CALM      30.04S                  
SELINSGROVE    PTSUNNY   66  60  81 CALM      30.05R                  
FT INDIANTOWN  CLOUDY    72  54  52 N10       30.00R                  
CAPITAL CITY   PTSUNNY   79  53  40 NW5       30.03R                  
HARRISBURG     CLOUDY    74  54  49 NW6       30.01R                  
YORK           PTSUNNY   72  62  71 CALM      30.03R                  
$$


SKY/WX - Weather  TMP - Temperature  DP - Dew Point  RH - Humidity
WIND - Wind Direction/Speed PRES - Barometric Pressure VSB - Visibility
WCI - Wind Chill Index E13G22 Wind - East Wind 13 mph/Gusts of 22 mph

Trending Headlines

Bitumen Radar Loop



Bitumen Quick Facts


National Two Day Weather Forecast


E-mail the Bitumen Weather Forecast

Voice your opinion or tell us about page issues...